Вернуться в каталог

STARLINK-37627

АктивенСвязьSSO
NORAD 69315·PAYLOAD·🇺🇸 United States

Запущен May 30, 2026 с Vandenberg Space Force Base

Loading…

Ближайшие Пролёты (ближайшие 24 часа)

TLE

СвежийSource: CelesTrak SupGP

Эпоха: Sep 14, 2026, 22:35 UTC

1 69315C 26119V   26257.94145833  .00044895  00000+0  13939-2 0  2575
2 69315  97.2831 282.8144 0001138  97.2192 314.0799 15.33411149    14

Отслеживайте STARLINK-37627 в реальном времени с AllMySat

Download on the App Store